Location: Chateh
(58.6667°N, 118.6000°W)
Time: 23:38:28
(UTC+00:00)

O/OREOS (USA 219) - Visible Passes

Search period start: 06 December 2023 00:00
Search period end: 16 December 2023 00:00
Orbit: 621 x 646 km, 72.0° (Epoch: 22 May)

Date Brightness Start Highest point End Pass type
(mag) Time Alt. Az. Time Alt. Az. Time Alt. Az.
06 Dec ? 11:40:36 11° NNE 11:40:36 11° NNE 11:40:57 10° NNE visible
06 Dec ? 13:18:02 16° N 13:19:17 18° NNE 13:22:23 10° ENE visible
06 Dec ? 14:55:37 10° NNW 14:59:53 39° NE 15:04:08 10° ESE visible
07 Dec ? 12:02:18 13° NNE 12:02:18 13° NNE 12:03:30 10° NE visible
07 Dec ? 13:39:45 16° N 13:41:52 22° NNE 13:45:23 10° ENE visible
07 Dec ? 15:17:39 10° NNW 15:22:08 61° NE 15:26:37 10° SE visible
08 Dec ? 12:24:01 16° NNE 12:24:01 16° NNE 12:26:20 10° NE visible
08 Dec ? 14:01:28 16° NNW 14:04:21 29° NE 14:08:18 10° E visible
09 Dec ? 12:45:45 18° N 12:46:10 18° NNE 12:49:20 10° ENE visible
09 Dec ? 14:23:12 14° NNW 14:26:43 42° NE 14:31:01 10° ESE visible
10 Dec ? 11:30:02 11° NE 11:30:02 11° NE 11:30:25 10° NE visible
10 Dec ? 13:07:29 20° N 13:08:43 23° NNE 13:12:20 10° E visible
10 Dec ? 14:44:56 13° NNW 14:48:57 66° NE 14:53:28 10° SE visible
11 Dec ? 11:51:48 14° NNE 11:51:48 14° NNE 11:53:16 10° NE visible
11 Dec ? 13:29:15 22° N 13:31:12 30° NE 13:35:13 10° E visible
11 Dec ? 15:06:42 11° NW 15:11:04 76° WSW 15:15:35 10° SSE visible
12 Dec ? 12:13:34 18° NNE 12:13:34 18° NNE 12:16:16 10° ENE visible
12 Dec ? 13:51:02 22° NNW 13:53:33 44° NE 13:57:54 10° ESE visible
12 Dec ? 15:28:44 10° NW 15:33:01 44° WSW 15:37:19 10° S visible
13 Dec ? 12:35:23 23° NNE 12:35:36 24° NNE 12:39:16 10° E visible
13 Dec ? 14:12:50 21° NNW 14:15:47 70° NE 14:20:18 10° SE visible
14 Dec ? 11:19:45 12° NE 11:19:45 12° NE 11:20:12 10° NE visible
14 Dec ? 12:57:12 29° NNE 12:58:04 32° NE 13:02:08 10° E visible
14 Dec ? 14:34:40 19° NW 14:37:52 71° WSW 14:42:23 10° SSE visible
15 Dec ? 11:41:37 16° NE 11:41:37 16° NE 11:43:13 10° ENE visible
15 Dec ? 13:19:04 36° N 13:20:24 47° NE 13:24:47 10° ESE visible
15 Dec ? 14:56:31 16° NW 14:59:48 40° WSW 15:04:03 10° S visible
